Location: Bats
(43.6587°N, 0.4584°W)
Time: 14:42:15
(UTC+00:00)

BREEZE M DEB (TANK) - Pass Details

Date: 12 January 2026
Orbit: 296 x 13742 km, 49.5° (Epoch: 16 February)

Event Time Altitude Azimuth Distance (km) Brightness Sun altitude
Rises 17:09:58 0° 298° (WNW) 2,074 6.3 -4.5°
Reaches altitude 10° 17:11:45 10° 307° (NW) 1,161 4.9 -4.8°
Maximum altitude 17:13:47 42° 23° (NNE) 484 2.2 -5.1°
Drops below altitude 10° 17:16:42 10° 97° (E) 1,665 4.8 -5.6°
Enters shadow 17:20:23 -1° 105° (ESE) 3,531 6.5 -6.2°
